FW6002 Weather Reports


time (UTC)temp
C
wind
direction
speed
KPH
gust
KPH
rain 1hr
cm
rain 24hr
cm
rain mn
cm
humidity
%
barometer
mb
20260906073100 27 0 0.0 1.6 0.00 0.00 0.00 76 1012.2
20260906072556 27 0 0.0 1.6 0.00 0.00 0.00 76 1012.1
20260906072056 27 0 0.0 3.2 0.00 0.00 0.00 75 1012.2
20260906071607 27 0 0.0 3.2 0.00 0.00 0.00 75 1012.2
20260906071055 27 0 0.0 1.6 0.00 0.00 0.00 74 1012.4
20260906070556 27 0 0.0 1.6 0.00 0.00 0.00 74 1012.4
20260906070104 27 0 0.0 3.2 0.00 0.00 0.00 74 1012.4
20260906065555 27 0 0.0 3.2 0.00 0.00 0.00 73 1012.4
20260906065056 27 46 0.0 3.2 0.00 0.00 0.00 73 1012.7
20260906064604 28 44 0.0 4.8 0.00 0.00 0.00 72 1012.6
20260906064059 28 0 1.6 4.8 0.00 0.00 0.00 72 1012.6
20260906063555 28 0 0.0 1.6 0.00 0.00 0.00 73 1012.7
20260906063100 28 0 0.0 3.2 0.00 0.00 0.00 73 1012.8
20260906062556 28 0 0.0 3.2 0.00 0.00 0.00 73 1012.8
20260906062055 28 0 0.0 3.2 0.00 0.00 0.00 73 1012.9
20260906061606 28 213 0.0 3.2 0.00 0.00 0.00 73 1013.0
20260906061055 28 0 0.0 3.2 0.00 0.00 0.00 74 1012.9
20260906060555 28 0 0.0 3.2 0.00 0.00 0.00 74 1012.8
20260906060136 28 0 0.0 3.2 0.00 0.00 0.00 74 1012.8
20260906055555 28 0 0.0 3.2 0.00 0.00 0.00 74 1012.8
20260906055055 28 0 0.0 1.6 0.00 0.00 0.00 74 1012.8
20260906054615 28 0 0.0 3.2 0.00 0.00 0.00 73 1012.7
20260906054056 28 0 0.0 4.8 0.00 0.00 0.00 73 1012.7
20260906053555 28 0 0.0 4.8 0.00 0.00 0.00 72 1012.7
20260906053101 28 0 0.0 3.2 0.00 0.00 0.00 72 1012.7
20260906052556 28 0 0.0 3.2 0.00 0.00 0.00 72 1012.6
20260906052056 28 70 0.0 3.2 0.00 0.00 0.00 72 1012.7
20260906051605 28 68 0.0 3.2 0.00 0.00 0.00 71 1012.6
20260906051059 28 0 0.0 3.2 0.00 0.00 0.00 71 1012.4
20260906050559 28 0 0.0 3.2 0.00 0.00 0.00 71 1012.3
20260906050105 28 0 0.0 3.2 0.00 0.00 0.00 70 1012.3
20260906045556 28 0 0.0 3.2 0.00 0.00 0.00 70 1012.6
20260906045056 28 0 0.0 4.8 0.00 0.00 0.00 70 1012.7
20260906044602 29 0 0.0 4.8 0.00 0.00 0.00 69 1012.8
20260906044100 29 0 0.0 4.8 0.00 0.00 0.00 69 1012.8
20260906043555 29 0 1.6 4.8 0.00 0.00 0.00 68 1012.7
20260906043105 29 104 1.6 4.8 0.00 0.00 0.00 68 1012.7
20260906042556 29 61 0.0 4.8 0.00 0.00 0.00 68 1012.5
20260906042055 29 67 1.6 4.8 0.00 0.00 0.00 67 1012.5
20260906041605 30 34 0.0 4.8 0.00 0.00 0.00 67 1012.3
20260906041055 30 55 0.0 6.4 0.00 0.00 0.00 66 1012.3
20260906040556 30 49 1.6 8.0 0.00 0.00 0.00 65 1012.4
20260906040109 30 275 0.0 8.0 0.00 0.00 0.00 65 1012.4
20260906035555 30 49 1.6 6.4 0.00 0.00 0.00 64 1012.5
20260906035055 30 160 1.6 8.0 0.00 0.00 0.00 63 1012.6
20260906034607 30 53 1.6 8.0 0.00 0.00 0.00 62 1012.6
20260906034055 30 208 0.0 3.2 0.00 0.00 0.00 61 1012.6
20260906033554 30 113 0.0 3.2 0.00 0.00 0.00 61 1012.9
20260906033100 30 0 0.0 4.8 0.00 0.00 0.00 60 1012.7
20260906032554 31 162 0.0 4.8 0.00 0.00 0.00 59 1012.5
20260906032055 31 64 1.6 6.4 0.00 0.00 0.00 59 1012.5
20260906031606 31 65 1.6 6.4 0.00 0.00 0.00 59 1012.5
20260906031055 31 62 0.0 3.2 0.00 0.00 0.00 59 1012.5
20260906030555 31 32 0.0 3.2 0.00 0.00 0.00 59 1012.3
20260906030101 31 0 0.0 3.2 0.00 0.00 0.00 58 1012.3
20260906025557 31 67 0.0 3.2 0.00 0.00 0.00 58 1012.2
20260906025057 31 0 0.0 4.8 0.00 0.00 0.00 58 1012.0
20260906024613 31 76 0.0 6.4 0.00 0.00 0.00 57 1011.9
20260906024054 31 0 0.0 6.4 0.00 0.00 0.00 57 1012.0
20260906023555 31 196 0.0 4.8 0.00 0.00 0.00 57 1012.0
20260906023104 31 92 1.6 6.4 0.00 0.00 0.00 57 1012.0
20260906022556 31 0 0.0 6.4 0.00 0.00 0.00 57 1012.0
20260906022055 31 58 0.0 8.0 0.00 0.00 0.00 56 1011.9
20260906021607 32 64 1.6 8.0 0.00 0.00 0.00 56 1011.8
20260906021055 32 275 1.6 8.0 0.00 0.00 0.00 56 1011.7
20260906020554 32 29 1.6 8.0 0.00 0.00 0.00 56 1011.7
20260906020109 32 160 1.6 8.0 0.00 0.00 0.00 55 1011.6
20260906015558 32 98 1.6 4.8 0.00 0.00 0.00 55 1011.5
20260906015056 32 67 1.6 6.4 0.00 0.00 0.00 55 1011.5
20260906014607 32 67 1.6 9.7 0.00 0.00 0.00 54 1011.5
20260906014054 32 61 1.6 9.7 0.00 0.00 0.00 54 1011.2
20260906013555 32 61 0.0 6.4 0.00 0.00 0.00 54 1011.4
20260906013104 32 0 1.6 8.0 0.00 0.00 0.00 54 1011.2
20260906012554 32 62 3.2 8.0 0.00 0.00 0.00 54 1011.1
20260906012055 33 173 1.6 8.0 0.00 0.00 0.00 53 1011.1
20260906011602 33 15 1.6 8.0 0.00 0.00 0.00 53 1010.9
20260906011056 33 201 3.2 12.9 0.00 0.00 0.00 52 1010.9
20260906010554 33 189 3.2 12.9 0.00 0.00 0.00 50 1010.7
20260906010143 33 84 1.6 12.9 0.00 0.00 0.00 48 1010.7
20260906005554 33 0 0.0 4.8 0.00 0.00 0.00 47 1010.6
20260906005057 34 76 0.0 4.8 0.00 0.00 0.00 46 1010.5
20260906004617 34 0 0.0 4.8 0.00 0.00 0.00 46 1010.6
20260906004055 34 182 0.0 4.8 0.00 0.00 0.00 45 1010.6
20260906003555 35 0 0.0 4.8 0.00 0.00 0.00 45 1010.6
20260906003108 35 0 0.0 4.8 0.00 0.00 0.00 45 1010.8
20260906002554 35 0 0.0 4.8 0.00 0.00 0.00 45 1010.6
20260906002052 35 0 1.6 4.8 0.00 0.00 0.00 44 1010.7
20260906001606 35 0 0.0 4.8 0.00 0.00 0.00 44 1010.6
20260906001054 35 0 1.6 4.8 0.00 0.00 0.00 43 1010.4
20260906000555 35 200 0.0 6.4 0.00 0.00 0.00 44 1010.3
20260906000108 35 0 1.6 11.3 0.00 0.00 0.00 43 1010.3
20260905235554 35 0 0.0 11.3 0.00 0.00 0.00 43 1010.3
20260905235055 36 197 1.6 11.3 0.00 0.00 0.00 42 1010.2
20260905234608 36 180 1.6 8.0 0.00 0.00 0.00 42 1010.4
20260905234056 36 118 1.6 6.4 0.00 0.00 0.00 42 1010.3
20260905233556 36 0 0.0 4.8 0.00 0.00 0.00 41 1010.3
20260905233103 36 187 0.0 6.4 0.00 0.00 0.00 40 1010.2
20260905232556 36 64 1.6 8.0 0.00 0.00 0.00 40 1010.2
20260905232056 36 151 0.0 8.0 0.00 0.00 0.00 39 1010.3
20260905231620 36 210 1.6 8.0 0.00 0.00 0.00 39 1010.3
20260905231055 36 124 1.6 8.0 0.00 0.00 0.00 40 1010.3
20260905230555 36 103 3.2 8.0 0.00 0.00 0.00 40 1010.4
20260905230109 36 215 0.0 6.4 0.00 0.00 0.00 41 1010.4
20260905225556 36 0 0.0 6.4 0.00 0.00 0.00 40 1010.4
20260905225056 36 194 0.0 6.4 0.00 0.00 0.00 41 1010.3
20260905224603 36 150 1.6 6.4 0.00 0.00 0.00 41 1010.3
20260905224057 36 317 0.0 3.2 0.00 0.00 0.00 41 1010.1
20260905223557 36 0 0.0 3.2 0.00 0.00 0.00 41 1010.3
20260905223106 36 0 0.0 6.4 0.00 0.00 0.00 40 1010.2
20260905222557 37 0 1.6 6.4 0.00 0.00 0.00 40 1010.3
20260905222056 36 0 0.0 8.0 0.00 0.00 0.00 39 1010.3
20260905221605 36 89 1.6 8.0 0.00 0.00 0.00 40 1010.4
20260905221056 36 148 0.0 6.4 0.00 0.00 0.00 40 1010.4
20260905220558 36 154 1.6 6.4 0.00 0.00 0.00 40 1010.5
20260905220106 37 199 1.6 6.4 0.00 0.00 0.00 40 1010.4
20260905215556 37 0 1.6 4.8 0.00 0.00 0.00 40 1010.4
20260905215059 36 216 0.0 6.4 0.00 0.00 0.00 41 1010.6
20260905214606 37 42 0.0 6.4 0.00 0.00 0.00 40 1010.7
20260905214056 37 71 1.6 9.7 0.00 0.00 0.00 40 1010.7
20260905213556 37 92 1.6 9.7 0.00 0.00 0.00 40 1010.6
20260905213106 37 69 1.6 8.0 0.00 0.00 0.00 39 1010.8
20260905212556 37 44 1.6 6.4 0.00 0.00 0.00 39 1010.7
20260905212056 37 74 1.6 6.4 0.00 0.00 0.00 39 1010.8
20260905211612 37 182 0.0 8.0 0.00 0.00 0.00 39 1010.8
20260905211055 37 180 1.6 8.0 0.00 0.00 0.00 39 1010.9
20260905210556 37 221 1.6 8.0 0.00 0.00 0.00 38 1011.0
20260905210122 38 0 1.6 8.0 0.00 0.00 0.00 38 1010.9
20260905205558 37 229 1.6 8.0 0.00 0.00 0.00 39 1011.0
20260905205056 37 67 1.6 4.8 0.00 0.00 0.00 41 1011.3
20260905204605 36 122 1.6 4.8 0.00 0.00 0.00 40 1011.3
20260905204055 37 53 1.6 9.7 0.00 0.00 0.00 39 1011.4
20260905203600 38 0 1.6 9.7 0.00 0.00 0.00 39 1011.4
20260905203104 38 188 0.0 9.7 0.00 0.00 0.00 39 1011.6
20260905202555 38 0 0.0 4.8 0.00 0.00 0.00 41 1011.6
20260905202100 37 267 0.0 4.8 0.00 0.00 0.00 41 1011.7
20260905201604 37 132 0.0 4.8 0.00 0.00 0.00 39 1011.7
20260905201055 38 113 0.0 4.8 0.00 0.00 0.00 42 1011.9
20260905200556 37 19 1.6 6.4 0.00 0.00 0.00 41 1011.9
20260905200127 37 150 1.6 6.4 0.00 0.00 0.00 40 1011.9
20260905195556 38 160 1.6 6.4 0.00 0.00 0.00 40 1012.0
20260905195055 39 0 0.0 6.4 0.00 0.00 0.00 38 1012.0
20260905194607 39 192 1.6 6.4 0.00 0.00 0.00 38 1012.2
20260905194058 38 157 0.0 8.0 0.00 0.00 0.00 38 1012.2
20260905193556 37 0 1.6 8.0 0.00 0.00 0.00 41 1012.3
20260905193108 36 185 0.0 4.8 0.00 0.00 0.00 43 1012.2
20260905192556 37 157 0.0 6.4 0.00 0.00 0.00 43 1012.3
20260905192055 37 166 1.6 6.4 0.00 0.00 0.00 41 1012.4
20260905191603 37 250 1.6 8.0 0.00 0.00 0.00 40 1012.3
20260905191056 36 227 1.6 8.0 0.00 0.00 0.00 44 1012.5
20260905190556 35 227 0.0 11.3 0.00 0.00 0.00 45 1012.8
20260905190105 35 185 1.6 12.9 0.00 0.00 0.00 44 1012.8
20260905185555 37 148 3.2 12.9 0.00 0.00 0.00 41 1012.8
20260905185055 37 191 1.6 12.9 0.00 0.00 0.00 40 1012.9
20260905184611 37 190 0.0 4.8 0.00 0.00 0.00 42 1012.8
20260905184055 37 342 1.6 8.0 0.00 0.00 0.00 41 1013.0
20260905183556 36 155 1.6 9.7 0.00 0.00 0.00 43 1013.1
20260905183108 37 0 0.0 11.3 0.00 0.00 0.00 41 1013.2
20260905182556 37 126 3.2 11.3 0.00 0.00 0.00 42 1013.3
20260905182056 36 154 1.6 9.7 0.00 0.00 0.00 43 1013.5
20260905181602 35 19 1.6 8.0 0.00 0.00 0.00 45 1013.4
20260905181056 35 167 1.6 9.7 0.00 0.00 0.00 44 1013.6
20260905180556 36 142 3.2 9.7 0.00 0.00 0.00 42 1013.6
20260905180108 37 59 1.6 6.4 0.00 0.00 0.00 41 1013.7
20260905175557 38 71 1.6 8.0 0.00 0.00 0.00 41 1013.8
20260905175056 37 202 1.6 8.0 0.00 0.00 0.00 43 1013.8
20260905174606 36 0 1.6 9.7 0.00 0.00 0.00 44 1013.9
20260905174055 36 0 1.6 9.7 0.00 0.00 0.00 42 1013.8
20260905173556 36 167 3.2 8.0 0.00 0.00 0.00 43 1013.9
20260905173104 37 71 0.0 3.2 0.00 0.00 0.00 42 1013.9
20260905172555 36 261 0.0 4.8 0.00 0.00 0.00 47 1014.1
20260905172055 35 0 0.0 6.4 0.00 0.00 0.00 46 1014.3
20260905171603 36 59 1.6 8.0 0.00 0.00 0.00 45 1014.4
20260905171056 36 115 1.6 8.0 0.00 0.00 0.00 45 1014.4
20260905170556 35 45 3.2 9.7 0.00 0.00 0.00 45 1014.4
20260905170104 35 28 1.6 9.7 0.00 0.00 0.00 47 1014.4
20260905165555 35 178 3.2 9.7 0.00 0.10 0.00 48 1014.3
20260905165056 35 69 1.6 8.0 0.00 0.10 0.00 47 1014.4
20260905164602 35 211 1.6 6.4 0.00 0.10 0.00 47 1014.4
20260905164055 35 65 1.6 6.4 0.00 0.10 0.00 49 1014.3
20260905163556 35 167 1.6 6.4 0.00 0.10 0.00 50 1014.4
20260905163104 35 54 1.6 6.4 0.00 0.10 0.00 50 1014.4
20260905162558 35 208 1.6 6.4 0.00 0.10 0.00 50 1014.4
20260905162056 35 33 1.6 4.8 0.00 0.10 0.00 51 1014.5
20260905161604 35 0 0.0 4.8 0.00 0.10 0.00 50 1014.6
20260905161056 33 0 1.6 4.8 0.00 0.10 0.00 53 1014.7
20260905160556 35 40 0.0 4.8 0.00 0.10 0.00 52 1014.5
20260905155555 33 68 0.0 4.8 0.00 0.38 0.00 55 1014.4
20260905155056 33 0 0.0 4.8 0.00 0.38 0.00 53 1014.3
20260905154609 33 36 0.0 3.2 0.00 0.38 0.00 57 1014.4
20260905154056 33 165 0.0 6.4 0.00 0.38 0.00 55 1014.4
20260905153559 33 16 0.0 6.4 0.00 0.38 0.00 55 1014.5
20260905153105 33 34 1.6 6.4 0.00 0.38 0.00 55 1014.4
20260905152559 33 261 0.0 8.0 0.00 0.38 0.00 55 1014.4
20260905152056 32 49 0.0 8.0 0.00 0.38 0.00 54 1014.4
20260905151633 32 64 1.6 8.0 0.00 0.38 0.00 54 1014.3
20260905151056 32 0 1.6 8.0 0.00 0.38 0.00 58 1014.3
20260905150556 31 162 0.0 6.4 0.00 0.38 0.00 61 1014.2
20260905150104 31 54 1.6 6.4 0.00 0.38 0.00 61 1014.4
20260905145559 31 78 1.6 6.4 0.00 0.38 0.00 61 1014.4
20260905145055 31 51 1.6 6.4 0.00 0.38 0.00 63 1014.5
20260905144605 30 0 0.0 4.8 0.00 0.38 0.00 67 1014.5
20260905144055 30 0 0.0 3.2 0.00 0.38 0.00 71 1014.6
20260905143557 30 0 0.0 3.2 0.00 0.38 0.00 71 1014.4
20260905143105 29 0 0.0 3.2 0.00 0.38 0.00 73 1014.5
20260905142600 29 50 0.0 3.2 0.00 0.38 0.00 73 1014.5
20260905142056 28 100 0.0 3.2 0.00 0.38 0.00 75 1014.4
20260905141606 28 0 0.0 4.8 0.00 0.38 0.00 75 1014.4
20260905141058 28 0 0.0 4.8 0.00 0.38 0.00 78 1014.4
20260905140556 27 69 0.0 3.2 0.00 0.38 0.00 79 1014.4
20260905135557 27 0 0.0 1.6 0.00 0.38 0.00 81 1014.4
20260905135057 27 0 0.0 1.6 0.00 0.38 0.00 82 1014.5
20260905134600 26 89 0.0 1.6 0.00 0.38 0.00 84 1014.4
20260905134059 25 0 0.0 1.6 0.00 0.38 0.00 88 1014.3
20260905133556 24 0 0.0 1.6 0.00 0.38 0.00 89 1014.3
20260905133103 24 0 0.0 1.6 0.00 0.38 0.00 89 1014.2
20260905132555 23 0 0.0 1.6 0.00 0.38 0.00 89 1014.1
20260905132055 23 0 0.0 1.6 0.00 0.38 0.00 88 1014.0
20260905131608 23 0 0.0 0.0 0.00 0.38 0.00 88 1013.9
20260905131056 23 0 0.0 0.0 0.00 0.38 0.00 88 1014.0
20260905130556 23 0 0.0 0.0 0.00 0.38 0.00 88 1014.1
20260905125555 23 0 0.0 3.2 0.00 0.38 0.00 88 1013.8
20260905125059 23 0 0.0 3.2 0.00 0.38 0.00 88 1013.8
20260905124601 23 0 0.0 1.6 0.00 0.38 0.00 87 1013.6
20260905124055 23 0 0.0 1.6 0.00 0.38 0.00 87 1013.5
20260905123555 23 0 0.0 1.6 0.00 0.38 0.00 87 1013.5
20260905123114 23 0 0.0 1.6 0.00 0.38 0.00 86 1013.5
20260905122558 22 0 0.0 1.6 0.00 0.38 0.00 86 1013.5
20260905122055 22 0 0.0 0.0 0.00 0.38 0.00 85 1013.5
20260905121605 22 0 0.0 0.0 0.00 0.38 0.00 85 1013.6
20260905121056 23 0 0.0 0.0 0.00 0.38 0.00 85 1013.5
20260905120559 23 0 0.0 0.0 0.00 0.38 0.00 85 1013.5
20260905120101 23 0 0.0 0.0 0.00 0.38 0.00 85 1013.6
20260905115556 23 0 0.0 0.0 0.00 0.38 0.00 85 1013.5
20260905115055 23 0 0.0 0.0 0.00 0.38 0.00 85 1013.5
20260905114605 23 0 0.0 0.0 0.00 0.38 0.00 85 1013.5
20260905114055 23 0 0.0 0.0 0.00 0.38 0.00 84 1013.5
20260905113555 23 0 0.0 0.0 0.00 0.38 0.00 84 1013.6
20260905113107 23 0 0.0 0.0 0.00 0.38 0.00 85 1013.5
20260905112559 23 0 0.0 0.0 0.00 0.38 0.00 84 1013.6
20260905112054 23 0 0.0 0.0 0.00 0.38 0.00 84 1013.6
20260905111606 23 0 0.0 0.0 0.00 0.38 0.00 84 1013.6
20260905111056 23 0 0.0 0.0 0.00 0.38 0.00 84 1013.6
20260905110601 23 0 0.0 0.0 0.00 0.38 0.00 84 1013.5
20260905110109 23 0 0.0 0.0 0.00 0.38 0.00 84 1013.6
20260905105556 23 0 0.0 0.0 0.00 0.38 0.00 84 1013.6
20260905105056 23 0 0.0 0.0 0.00 0.38 0.00 84 1013.6
20260905104605 23 0 0.0 0.0 0.00 0.38 0.00 84 1013.4
20260905104056 23 0 0.0 0.0 0.00 0.38 0.00 85 1013.5
20260905103556 23 0 0.0 0.0 0.00 0.38 0.00 84 1013.4
20260905103106 23 0 0.0 0.0 0.00 0.38 0.00 85 1013.4
20260905102555 24 0 0.0 0.0 0.00 0.38 0.00 85 1013.4
20260905102055 24 0 0.0 0.0 0.00 0.38 0.00 85 1013.3
20260905101606 24 0 0.0 0.0 0.00 0.38 0.00 85 1013.3
20260905101054 24 0 0.0 0.0 0.00 0.38 0.00 85 1013.2
20260905100556 24 0 0.0 0.0 0.00 0.38 0.00 85 1013.3
20260905100109 24 0 0.0 0.0 0.00 0.38 0.00 85 1013.3
20260905095555 24 0 0.0 0.0 0.00 0.38 0.00 85 1013.3
20260905095056 24 0 0.0 0.0 0.00 0.38 0.00 85 1013.3
20260905094601 24 0 0.0 1.6 0.00 0.38 0.00 85 1013.1
20260905094055 24 0 0.0 1.6 0.00 0.38 0.00 85 1013.2
20260905093555 24 0 0.0 0.0 0.00 0.38 0.00 85 1013.3
20260905093104 24 0 0.0 1.6 0.00 0.38 0.00 85 1013.3
20260905092555 24 0 0.0 1.6 0.00 0.38 0.00 85 1013.2
20260905092054 24 0 0.0 0.0 0.00 0.38 0.00 85 1013.3
20260905091604 24 0 0.0 0.0 0.00 0.38 0.00 84 1013.2
20260905091055 24 0 0.0 0.0 0.00 0.38 0.00 84 1013.2
20260905090555 24 0 0.0 0.0 0.00 0.38 0.00 84 1013.2
20260905090110 24 0 0.0 0.0 0.00 0.38 0.00 83 1013.1
20260905085556 24 0 0.0 0.0 0.00 0.38 0.00 84 1013.0
20260905085056 24 0 0.0 1.6 0.00 0.38 0.00 83 1013.1
20260905084613 24 0 0.0 1.6 0.00 0.38 0.00 83 1013.1
20260905084057 24 0 0.0 0.0 0.00 0.38 0.00 83 1012.9
20260905083556 24 0 0.0 0.0 0.00 0.38 0.00 82 1013.0
20260905083102 24 0 0.0 0.0 0.00 0.38 0.00 82 1012.9
20260905082555 24 0 0.0 0.0 0.00 0.38 0.00 82 1013.0
20260905082055 24 0 0.0 0.0 0.00 0.38 0.00 82 1013.0
20260905081604 24 0 0.0 0.0 0.00 0.38 0.00 82 1012.9
20260905081055 24 0 0.0 0.0 0.00 0.38 0.00 81 1013.1
20260905080555 25 0 0.0 0.0 0.00 0.38 0.00 81 1013.0
20260905080139 25 0 0.0 0.0 0.00 0.38 0.00 81 1013.2
20260905075555 25 0 0.0 0.0 0.00 0.38 0.00 81 1013.2
20260905075055 25 0 0.0 0.0 0.00 0.38 0.00 80 1013.2
20260905074606 25 0 0.0 0.0 0.00 0.38 0.00 80 1013.2
20260905074055 25 0 0.0 0.0 0.00 0.38 0.00 79 1013.2
20260905073555 25 0 0.0 0.0 0.00 0.38 0.00 78 1013.4